| time (UTC) | temp F | wind direction | speed knots | gust knots | rain 1hr in | rain 24hr in | rain mn in | humidity % | barometer mb |
| 20260505190524 | 60 | 36 | 0.0 | 2.6 | 0.00 | 0.00 | 0.00 | 55 | 1021.5 |
| 20260505185024 | 59 | 45 | 0.9 | 3.5 | 0.00 | 0.00 | 0.00 | 55 | 1021.5 |
| 20260505183526 | 59 | 8 | 2.6 | 2.6 | 0.00 | 0.00 | 0.00 | 55 | 1021.5 |
| 20260505180451 | 59 | 161 | 0.0 | 1.7 | 0.00 | 0.00 | 0.00 | 55 | 1021.5 |
| 20260505174951 | 58 | 248 | 0.9 | 3.5 | 0.00 | 0.00 | 0.00 | 55 | 1021.2 |
| 20260505173450 | 59 | 70 | 0.0 | 2.6 | 0.00 | 0.00 | 0.00 | 55 | 1021.2 |
| 20260505171947 | 58 | 275 | 0.9 | 2.6 | 0.00 | 0.00 | 0.00 | 55 | 1021.2 |
| 20260505170432 | 58 | 275 | 1.7 | 2.6 | 0.00 | 0.00 | 0.00 | 55 | 1020.9 |
| 20260505164933 | 57 | 315 | 0.9 | 2.6 | 0.00 | 0.00 | 0.00 | 55 | 1020.9 |
| 20260505163432 | 56 | 286 | 2.6 | 2.6 | 0.00 | 0.00 | 0.00 | 55 | 1021.2 |
| 20260505161913 | 56 | 242 | 1.7 | 3.5 | 0.00 | 0.00 | 0.00 | 55 | 1020.9 |
| 20260505160352 | 56 | 232 | 1.7 | 2.6 | 0.00 | 0.00 | 0.00 | 55 | 1020.9 |
| 20260505153335 | 55 | 267 | 1.7 | 2.6 | 0.00 | 0.00 | 0.00 | 55 | 1020.5 |
| 20260505151809 | 55 | 151 | 1.7 | 2.6 | 0.00 | 0.00 | 0.00 | 55 | 1020.9 |
| 20260505140223 | 54 | 237 | 0.9 | 2.6 | 0.00 | 0.00 | 0.00 | 55 | 1019.8 |
| 20260505130223 | 54 | 190 | 0.0 | 2.6 | 0.00 | 0.00 | 0.00 | 55 | 1019.5 |
| 20260505124651 | 54 | 227 | 0.9 | 1.7 | 0.00 | 0.00 | 0.00 | 55 | 1019.5 |
| 20260505123131 | 54 | 194 | 0.9 | 2.6 | 0.00 | 0.00 | 0.00 | 55 | 1019.5 |
| 20260505121624 | 54 | 233 | 1.7 | 3.5 | 0.00 | 0.00 | 0.00 | 55 | 1019.5 |
| 20260505120113 | 54 | 163 | 0.9 | 6.1 | 0.00 | 0.00 | 0.00 | 55 | 1019.5 |
| 20260505114604 | 54 | 187 | 0.0 | 5.2 | 0.00 | 0.00 | 0.00 | 55 | 1019.2 |
| 20260505113053 | 54 | 233 | 3.5 | 6.1 | 0.00 | 0.00 | 0.00 | 55 | 1019.5 |
| 20260505111537 | 54 | 213 | 1.7 | 2.6 | 0.00 | 0.00 | 0.00 | 55 | 1019.2 |
| 20260505101443 | 54 | 191 | 0.9 | 5.2 | 0.00 | 0.00 | 0.00 | 55 | 1019.2 |
| 20260505095926 | 53 | 229 | 1.7 | 5.2 | 0.00 | 0.00 | 0.00 | 55 | 1018.8 |
| 20260505091423 | 53 | 222 | 1.7 | 2.6 | 0.00 | 0.00 | 0.00 | 55 | 1018.8 |
| 20260505085918 | 53 | 192 | 0.9 | 2.6 | 0.00 | 0.00 | 0.00 | 55 | 1018.5 |
| 20260505084414 | 53 | 223 | 1.7 | 2.6 | 0.00 | 0.00 | 0.00 | 55 | 1018.5 |
| 20260505082857 | 53 | 229 | 0.9 | 3.5 | 0.00 | 0.00 | 0.00 | 55 | 1018.8 |
| 20260505081336 | 53 | 231 | 1.7 | 6.1 | 0.00 | 0.00 | 0.00 | 55 | 1018.5 |
| 20260505071323 | 53 | 230 | 2.6 | 5.2 | 0.00 | 0.00 | 0.00 | 55 | 1018.2 |
| 20260505065823 | 54 | 236 | 3.5 | 6.1 | 0.00 | 0.00 | 0.00 | 55 | 1018.2 |
| 20260505064324 | 54 | 231 | 4.3 | 6.1 | 0.00 | 0.00 | 0.00 | 55 | 1017.8 |
| 20260505061244 | 55 | 222 | 2.6 | 3.5 | 0.00 | 0.00 | 0.00 | 55 | 1017.5 |
| 20260505055744 | 55 | 243 | 2.6 | 5.2 | 0.00 | 0.00 | 0.00 | 55 | 1017.8 |
| 20260505054245 | 55 | 247 | 4.3 | 7.0 | 0.00 | 0.00 | 0.00 | 55 | 1017.5 |
| 20260505052745 | 55 | 241 | 3.5 | 13.0 | 0.00 | 0.00 | 0.00 | 55 | 1017.5 |
| 20260505051225 | 55 | 251 | 7.8 | 12.2 | 0.00 | 0.00 | 0.00 | 55 | 1017.5 |
| 20260505041130 | 57 | 235 | 5.2 | 13.0 | 0.00 | 0.00 | 0.00 | 55 | 1016.5 |
| 20260505035631 | 57 | 231 | 7.8 | 12.2 | 0.00 | 0.00 | 0.00 | 55 | 1016.5 |
| 20260505034129 | 58 | 258 | 7.8 | 12.2 | 0.00 | 0.00 | 0.00 | 55 | 1016.1 |
| 20260505032630 | 59 | 289 | 5.2 | 12.2 | 0.00 | 0.00 | 0.00 | 55 | 1016.1 |
| 20260505025610 | 62 | 228 | 7.0 | 9.6 | 0.00 | 0.00 | 0.00 | 55 | 1015.8 |
| 20260505024056 | 63 | 276 | 6.1 | 13.0 | 0.00 | 0.00 | 0.00 | 55 | 1015.4 |
| 20260505022537 | 65 | 205 | 6.1 | 13.0 | 0.00 | 0.00 | 0.00 | 55 | 1015.4 |
| 20260505021022 | 66 | 232 | 6.1 | 9.6 | 0.00 | 0.00 | 0.00 | 55 | 1015.4 |
| 20260505015516 | 67 | 264 | 7.8 | 13.0 | 0.00 | 0.00 | 0.00 | 55 | 1015.4 |
| 20260505013948 | 68 | 282 | 3.5 | 12.2 | 0.00 | 0.00 | 0.00 | 55 | 1015.4 |
| 20260505012449 | 69 | 262 | 7.8 | 11.3 | 0.00 | 0.00 | 0.00 | 55 | 1015.8 |
| 20260505010948 | 71 | 268 | 7.0 | 9.6 | 0.00 | 0.00 | 0.00 | 55 | 1015.8 |
| 20260505005448 | 73 | 276 | 7.0 | 9.6 | 0.00 | 0.00 | 0.00 | 55 | 1015.8 |
| 20260505003944 | 74 | 254 | 3.5 | 8.7 | 0.00 | 0.00 | 0.00 | 55 | 1015.8 |
| 20260505002441 | 74 | 274 | 5.2 | 7.8 | 0.00 | 0.00 | 0.00 | 55 | 1015.8 |
| 20260505000922 | 73 | 241 | 5.2 | 9.6 | 0.00 | 0.00 | 0.00 | 55 | 1015.8 |
| 20260504235350 | 73 | 222 | 6.1 | 7.8 | 0.00 | 0.00 | 0.00 | 55 | 1016.1 |
| 20260504232348 | 74 | 267 | 2.6 | 8.7 | 0.00 | 0.00 | 0.00 | 55 | 1015.8 |
| 20260504230817 | 74 | 247 | 3.5 | 7.0 | 0.00 | 0.00 | 0.00 | 55 | 1016.1 |
| 20260504223817 | 74 | 214 | 3.5 | 6.1 | 0.00 | 0.00 | 0.00 | 55 | 1016.5 |
| 20260504222311 | 72 | 234 | 5.2 | 7.8 | 0.00 | 0.00 | 0.00 | 55 | 1016.8 |
| 20260504220810 | 71 | 147 | 2.6 | 6.1 | 0.00 | 0.00 | 0.00 | 55 | 1016.8 |
| 20260504215252 | 71 | 152 | 1.7 | 7.0 | 0.00 | 0.00 | 0.00 | 55 | 1016.8 |
| 20260504213736 | 70 | 168 | 1.7 | 7.0 | 0.00 | 0.00 | 0.00 | 55 | 1016.8 |
| 20260504210714 | 69 | 110 | 2.6 | 6.1 | 0.00 | 0.00 | 0.00 | 55 | 1017.1 |
| 20260504205150 | 69 | 233 | 3.5 | 7.0 | 0.00 | 0.00 | 0.00 | 55 | 1017.5 |
| 20260504203648 | 69 | 164 | 2.6 | 7.8 | 0.00 | 0.00 | 0.00 | 55 | 1017.8 |
| 20260504200621 | 66 | 134 | 2.6 | 8.7 | 0.00 | 0.00 | 0.00 | 55 | 1018.2 |
| 20260504195051 | 68 | 153 | 2.6 | 9.6 | 0.00 | 0.00 | 0.00 | 55 | 1018.2 |